SAUDISAT 1C (SO-50) 1 27607U 02058C 25261.04732480 .00001656 00000+0 21953-3 0 9991 2 27607 64.5510 250.3470 0066525 312.9469 46.6067 14.81894576224116 SAUDISAT 2 1 28371U 04025F 25260.92882365 .00000356 00000+0 90884-4 0 9996 2 28371 98.5357 249.1581 0025898 54.7959 305.5658 14.56399282126113 SAUDISAT 3 1 31118U 07012B 25260.88724478 .00000385 00000+0 70624-4 0 9995 2 31118 98.1068 206.7540 0015169 19.0849 341.0922 14.71124838987717 PISAT 1 41784U 16059B 25261.02615276 .00001055 00000+0 19051-3 0 9999 2 41784 97.8183 268.3884 0029371 357.9838 2.1244 14.68156720479795 FLYING LAPTOP 1 42831U 17042G 25261.32134591 .00002188 00000+0 18427-3 0 9999 2 42831 97.4151 63.9545 0010549 333.2774 26.7905 14.99149085445694 SALSAT 1 46495U 20068K 25260.91735551 .00007439 00000+0 30842-3 0 9997 2 46495 97.8707 243.7322 0011516 163.1562 197.0059 15.24146179273800